Regional Weather Roundup
Issued by NWS Bismarck, ND

Current Version | Previous Version | Text Only | Print | Product List | Glossary On
Versions: 1 2 3 4 5 6 7 8 9 10 11 12 13 14 15 16 17 18 19 20 21 22 23 24 25 26 27 28 29 30 31 32 33 34 35 36 37 38 39 40 41 42 43 44 45 46 47 48 49 50
000
ASUS43 KBIS 250010
RWRBIS

NWR BROADCAST TEXT
NATIONAL WEATHER SERVICE BISMARCK ND
600 PM CST FRI JAN 24 2020

NOTE: "FAIR" INDICATES FEW OR NO CLOUDS BELOW 12,000 FEET WITH NO
SIGNIFICANT WEATHER AND/OR OBSTRUCTIONS TO VISIBILITY.


CITY           SKY/WX    TMP DP  RH WIND       PRES   REMARKS
WILLISTON      CLOUDY    29  26  89 SE8       29.85F
MINOT          CLOUDY    21  18  88 SE7       29.96F WCI  12
MINOT AFB      NOT AVBL
BISMARCK       CLOUDY    19  18  95 S6        30.02S WCI  11
DICKINSON      FOG       27  25  92 S13       29.87S VSB 1/2 WCI  16
GARRISON         N/A     19  18  95 S10       29.96F WCI   7
HETTINGER ARPT FOG       26  26 100 SE9       29.91F VSB 1/2 WCI  17
JAMESTOWN      CLOUDY    23  21  92 CALM      30.03S
CARRINGTON     CLOUDY    21  19  93 S10       30.06R WCI  10
HAZEN          CLOUDY    21  21 100 S9        29.99S WCI  11
MANDAN         CLOUDY    19  19 100 S8        29.99F FOG     WCI   9
OAKES            N/A     23  23 100 CALM      30.05S
RUGBY          CLOUDY    16  16 100 S7        30.01S WCI   6
STANLEY        FOG       19  19 100 MISG      29.91S VSB<1/4
TIOGA          FOG       21  21 100 SE10      29.90F VSB<1/4 WCI  10
$$

CITY           SKY/WX    TMP DP  RH WIND       PRES   REMARKS
GRAND FORKS    CLOUDY    24  20  84 NE6       30.08S WCI  17
GRAND FORKS AF CLOUDY    25  23  93 N2        30.08R
DEVILS LAKE    CLOUDY    20  18  92 S6        30.05R WCI  12
FARGO          CLOUDY    26  22  84 N3        30.06F
CANDO          CLOUDY    19  19 100 S12G22    30.05S WCI   7
CAVALIER       CLOUDY    23  19  86 CALM      30.08S
GRAFTON        CLOUDY    23  23 100 E5        30.11R WCI  17
GWINNER        CLOUDY    25  25 100 N3        30.05S FOG
LANGDON        CLOUDY    21  21 100 S12       30.03S WCI   9
ROLLA          FOG       16  14  93 S18G36    30.00S VSB 1/4 WCI  -1
WALHALLA       CLOUDY    23  23 100 S5        30.08R WCI  17
$$

CITY           SKY/WX    TMP DP  RH WIND       PRES   REMARKS
ABERDEEN       CLOUDY    25  21  85 CALM      30.07R
MOBRIDGE       CLOUDY    22  18  85 CALM      30.00S
BUFFALO          N/A     35  25  66 S7        29.86S
RAPID CITY     CLOUDY    36  25  64 S6        29.90S
GLASGOW        MOCLDY    34  28  79 E10       29.79S
SIDNEY         PTCLDY    29  28  96 N3        29.86S
WOLF POINT     MOCLDY    34  29  82 E7        29.82F
GLENDIVE       CLOUDY    33  29  85 CALM      29.84S
MILES CITY     CLOUDY    40  31  70 S6        29.82F
BAKER          MOCLDY    34  26  72 SE8       29.85S
$$

CITY           SKY/WX    TMP DP  RH WIND       PRES   REMARKS
BILLINGS       MOCLDY    48  22  35 SW13      29.85R
GREAT FALLS    CLOUDY    45  29  53 SW21      29.80R
REGINA         MOCLDY    21  19  93 SE17      29.80S WCI   7
ESTEVAN        CLOUDY    21  21 100 E10G17    29.87F WCI  10
$$




USA.gov is the U.S. government's official web portal to all federal, state and local government web resources and services.